Regional Weather Roundup
Issued by NWS Sioux Falls, SD

Home | Current Version | Previous Version | Text Only | Print | Product List | Glossary On
Versions: 1 2 3 4 5 6 7 8 9 10 11 12 13 14 15 16 17 18 19 20 21 22 23 24 25 26 27 28 29 30 31 32 33 34 35 36 37 38 39 40 41 42 43 44 45 46 47 48 49 50
000
ASUS43 KFSD 120610
RWRFSD

WEATHER ROUNDUP FOR SE SOUTH DAKOTA/SW MINNESOTA/NW IOWA
NATIONAL WEATHER SERVICE SIOUX FALLS SD
100 AM CDT SAT JUL 12 2014

NOTE: "FAIR" INDICATES FEW OR NO CLOUDS BELOW 12,000 FEET WITH NO
SIGNIFICANT WEATHER AND OR OBSTRUCTIONS TO VISIBILITY.


SDZ038>040-050-052>070-120700-
SOUTHEAST SOUTH DAKOTA

CITY           SKY/WX    TMP DP  RH WIND       PRES   REMARKS
CHAMBERLAIN    CLOUDY    73  69  89 SW5       30.04R
6HR MIN TEMP:  73; 6HR MAX TEMP:  85;

HURON          LGT RAIN  77  71  82 E3        29.98F
6HR MIN TEMP:  76; 6HR MAX TEMP:  89; 6HR PCP: TRACE;

MADISON        FAIR      72  72 100 CALM      30.01F
MITCHELL       CLOUDY    76  75  97 SE3       29.99S
6HR MIN TEMP:  76; 6HR MAX TEMP:  87;

SIOUX FALLS    CLOUDY    73  71  93 NE5       30.00F
6HR MIN TEMP:  73; 6HR MAX TEMP:  81;

WINNER         FAIR      73  66  78 W6        30.05R
YANKTON        CLOUDY    73  72  94 S5        29.98F
$$

MNZ071-072-080-081-089-090-097-098-120700-
SOUTHWEST MINNESOTA

CITY           SKY/WX    TMP DP  RH WIND       PRES   REMARKS
FAIRMONT       PTCLDY    70  64  83 S6        30.02F
JACKSON        PTCLDY    72  68  88 S5        30.03F
LUVERNE          N/A     72  70  94 CALM      30.01F FOG
MARSHALL       CLOUDY    73  70  88 W5        29.99F
6HR MIN TEMP:  73; 6HR MAX TEMP:  88;

MONTEVIDEO     PTCLDY    73  70  88 S3        29.99F
PIPESTONE      CLOUDY    73  70  88 CALM      30.02F FOG
REDWOOD FALLS  CLOUDY    74  71  91 SW3       29.99F
TRACY          CLOUDY    74  72  93 SW6       30.01S FOG
WINDOM         MOCLDY    72  70  94 CALM      30.02F FOG
WORTHINGTON    MOCLDY    72  70  94 CALM      30.03F
$$

IAZ001>003-012>014-020>022-031-032-NEZ013-014-SDZ071-120700-
NORTHWEST IOWA

CITY           SKY/WX    TMP DP  RH WIND       PRES   REMARKS
CHEROKEE       DRIZZLE   71  71 100 CALM      30.02S
DENISON        CLOUDY    72  72 100 NE5       30.00F FOG
ESTHERVILLE    PTCLDY    67  66  97 S5        30.02F FOG
LE MARS        CLOUDY    72  72 100 CALM      30.03S FOG
ORANGE CITY    CLOUDY    72  70  94 S5        30.03R FOG
SHELDON        CLOUDY    70  70 100 CALM      30.01S FOG
SIOUX CITY     TSTM      70  69  97 SW5       30.04R FOG
6HR MIN TEMP:  70; 6HR MAX TEMP:  76; 6HR PCP:  1.03;

SPENCER        MOCLDY    71  68  90 CALM      30.02F FOG
6HR MIN TEMP:  70; 6HR MAX TEMP:  78;

STORM LAKE     CLOUDY    70  70 100 S7        30.04S FOG
$$

ABBREVIATIONS USED IN REMARKS
   TC - TEMPERATURE IN CELSIUS
  WCI - WIND CHILL INDEX
   HX - HEAT INDEX
  VSB - VISIBILITY



USA.gov is the U.S. government's official web portal to all federal, state and local government web resources and services.